SAS2837 EKCH-GCLP

Flight info

Callsign SAS2837
Flight time N/A
Altitude 40000
Route NEXEN T503 MICOS DCT OSNAD DCT LNO DCT RASCA DCT FAMEN/N0484F390 DCT AHVEC UN857 DISAK DCT ARKIP DCT ARNAV DCT LMG DCT UVELI DCT OSMOB/N0482F410 DCT VAVIX DCT NETUK DCT PPN DCT NOLSA N857 VASUM DCT BANEV DCT BAN DCT GOTOR DCT KAMPO DCT MONTO DCT MOLIN DCT HIJ DCT SVL DCT CLANA DCT KORNO UN857 IBALU/N0476F390 UN857 TERTO
Aircraft A359/H-SABDE1E3FGHIJ1J2J3J4J5M1P2RWXYZ/LB2D1

Departure

Time 2026-05-08 08:59
Airport Copenhagen Kastrup Airport (EKCH)

Arrival

Time N/A
Airport Gran Canaria Airport (GCLP)
Time Latitude Longitude Altitude Speed Heading
2026-05-08 08:36 55.62624 12.64410 30 ft 0 kts 68°
2026-05-08 08:51 55.62621 12.64393 30 ft 4 kts 68°
2026-05-08 08:52 55.62610 12.64349 30 ft 4 kts 66°
2026-05-08 08:52 55.62599 12.64306 27 ft 4 kts 65°
2026-05-08 08:52 55.62588 12.64262 27 ft 4 kts 64°
2026-05-08 08:52 55.62576 12.64220 27 ft 4 kts 64°
2026-05-08 08:53 55.62564 12.64177 28 ft 4 kts 64°
2026-05-08 08:53 55.62554 12.64141 30 ft 0 kts 67°
2026-05-08 08:56 55.62551 12.64164 30 ft 5 kts 113°
2026-05-08 08:56 55.62496 12.64282 30 ft 17 kts 129°
2026-05-08 08:56 55.62417 12.64435 30 ft 15 kts 158°
2026-05-08 08:57 55.62302 12.64407 29 ft 20 kts 194°
2026-05-08 08:57 55.62159 12.64310 29 ft 23 kts 205°
2026-05-08 08:57 55.62014 12.64188 29 ft 24 kts 205°
2026-05-08 08:57 55.61864 12.64075 30 ft 23 kts 188°
2026-05-08 08:58 55.61784 12.64077 30 ft 0 kts 176°
2026-05-08 08:58 55.61774 12.64078 30 ft 3 kts 176°
2026-05-08 08:58 55.61710 12.64085 31 ft 16 kts 176°
2026-05-08 08:58 55.61607 12.64042 33 ft 16 kts 218°
2026-05-08 08:59 55.61440 12.63783 31 ft 63 kts 220°
2026-05-08 08:59 55.60946 12.63018 31 ft 125 kts 221°
2026-05-08 08:59 55.60162 12.61793 117 ft 169 kts 219°
2026-05-08 08:59 55.59274 12.60401 833 ft 169 kts 218°
2026-05-08 09:00 55.58384 12.59029 1576 ft 178 kts 216°
2026-05-08 09:00 55.57376 12.57512 1858 ft 202 kts 217°
2026-05-08 09:00 55.56207 12.55930 2236 ft 224 kts 212°
2026-05-08 09:00 55.54849 12.54263 2579 ft 249 kts 211°
2026-05-08 09:01 55.53389 12.52478 3218 ft 260 kts 212°
2026-05-08 09:01 55.51886 12.50630 3955 ft 266 kts 212°
2026-05-08 09:01 55.50352 12.48736 4689 ft 272 kts 212°
2026-05-08 09:01 55.48788 12.46819 5467 ft 276 kts 212°
2026-05-08 09:02 55.47208 12.44883 6312 ft 277 kts 212°
2026-05-08 09:02 55.45619 12.42952 7204 ft 278 kts 212°
2026-05-08 09:02 55.44025 12.41011 8065 ft 280 kts 212°
2026-05-08 09:02 55.42418 12.39048 8944 ft 282 kts 212°
2026-05-08 09:03 55.40797 12.37071 9832 ft 285 kts 212°
2026-05-08 09:03 55.39158 12.35075 10619 ft 291 kts 212°
2026-05-08 09:03 55.37445 12.32998 10984 ft 311 kts 212°
2026-05-08 09:03 55.35593 12.30754 11313 ft 332 kts 212°
2026-05-08 09:04 55.33656 12.28403 11884 ft 343 kts 212°
2026-05-08 09:04 55.31678 12.26004 12674 ft 347 kts 213°
2026-05-08 09:04 55.29685 12.23588 13484 ft 350 kts 212°
2026-05-08 09:04 55.29006 12.22766 13741 ft 352 kts 212°
2026-05-08 09:05 55.25642 12.18697 15006 ft 356 kts 213°
2026-05-08 09:05 55.23590 12.16222 15665 ft 360 kts 213°
2026-05-08 09:05 55.21516 12.13720 16354 ft 364 kts 213°
2026-05-08 09:05 55.19423 12.11200 17084 ft 367 kts 214°
2026-05-08 09:06 55.17341 12.08556 17801 ft 372 kts 216°
2026-05-08 09:06 55.15247 12.05836 18509 ft 376 kts 216°
2026-05-08 09:06 55.13130 12.03105 19164 ft 380 kts 216°
2026-05-08 09:06 55.10988 12.00358 19798 ft 384 kts 216°
2026-05-08 09:07 55.08822 11.97590 20401 ft 388 kts 216°
2026-05-08 09:07 55.06632 11.94797 20999 ft 392 kts 215°
2026-05-08 09:07 55.04415 11.91977 21641 ft 396 kts 216°
2026-05-08 09:07 55.02181 11.89139 22263 ft 400 kts 215°
2026-05-08 09:08 54.99923 11.86275 22840 ft 404 kts 216°
2026-05-08 09:08 54.97641 11.83385 23438 ft 407 kts 215°
2026-05-08 09:08 54.95339 11.80473 23991 ft 411 kts 215°
2026-05-08 09:08 54.93017 11.77542 24528 ft 413 kts 215°
2026-05-08 09:09 54.90684 11.74598 25047 ft 416 kts 216°
2026-05-08 09:09 54.88332 11.71636 25541 ft 419 kts 215°
2026-05-08 09:09 54.85963 11.68659 26044 ft 422 kts 215°
2026-05-08 09:09 54.83576 11.65664 26538 ft 425 kts 215°
2026-05-08 09:10 54.81171 11.62648 27013 ft 428 kts 215°
2026-05-08 09:10 54.78746 11.59610 27520 ft 431 kts 214°
2026-05-08 09:10 54.76307 11.56560 28016 ft 434 kts 214°
2026-05-08 09:10 54.73851 11.53496 28462 ft 438 kts 214°
2026-05-08 09:11 54.71370 11.50407 28934 ft 440 kts 215°
2026-05-08 09:11 54.68892 11.47315 29521 ft 440 kts 215°
2026-05-08 09:11 54.66402 11.44217 29975 ft 443 kts 216°
2026-05-08 09:11 54.63891 11.41097 30375 ft 446 kts 215°
2026-05-08 09:12 54.61364 11.37973 30741 ft 448 kts 215°
2026-05-08 09:12 54.58818 11.34833 31086 ft 451 kts 215°
2026-05-08 09:12 54.56264 11.31690 31482 ft 452 kts 214°
2026-05-08 09:12 54.53704 11.28542 31867 ft 454 kts 215°
2026-05-08 09:13 54.51120 11.25385 32136 ft 458 kts 214°
2026-05-08 09:13 54.48508 11.22215 32436 ft 460 kts 214°
2026-05-08 09:13 54.45896 11.19062 32913 ft 458 kts 215°
2026-05-08 09:13 54.43280 11.15888 33151 ft 462 kts 216°
2026-05-08 09:14 54.40645 11.12689 33411 ft 465 kts 215°
2026-05-08 09:14 54.38003 11.09495 33754 ft 466 kts 215°
2026-05-08 09:14 54.35339 11.06283 33976 ft 469 kts 215°
2026-05-08 09:14 54.32662 11.03061 34216 ft 471 kts 215°
2026-05-08 09:15 54.29972 10.99839 34478 ft 472 kts 215°
2026-05-08 09:15 54.27334 10.96476 34678 ft 474 kts 218°
2026-05-08 09:15 54.24758 10.92943 34915 ft 474 kts 220°
2026-05-08 09:15 54.22223 10.89363 35341 ft 471 kts 220°
2026-05-08 09:16 54.19703 10.85792 35611 ft 471 kts 220°
2026-05-08 09:16 54.17172 10.82242 35828 ft 472 kts 219°
2026-05-08 09:16 54.14623 10.78708 36088 ft 472 kts 219°
2026-05-08 09:16 54.12063 10.75193 36327 ft 473 kts 219°
2026-05-08 09:17 54.09495 10.71692 36562 ft 473 kts 219°
2026-05-08 09:17 54.06922 10.68199 36800 ft 473 kts 219°
2026-05-08 09:17 54.04345 10.64709 37041 ft 473 kts 219°
2026-05-08 09:17 54.01804 10.61273 37266 ft 473 kts 219°
2026-05-08 09:18 53.99228 10.57796 37538 ft 472 kts 219°
2026-05-08 09:18 53.96656 10.54326 37779 ft 472 kts 219°
2026-05-08 09:18 53.94085 10.50863 37995 ft 472 kts 219°
2026-05-08 09:18 53.91507 10.47395 38209 ft 473 kts 219°
2026-05-08 09:19 53.88932 10.43938 38400 ft 473 kts 219°
2026-05-08 09:19 53.86352 10.40478 38608 ft 473 kts 219°
2026-05-08 09:19 53.83773 10.37026 38802 ft 473 kts 219°
2026-05-08 09:19 53.81187 10.33570 38966 ft 473 kts 219°
2026-05-08 09:20 53.78605 10.30125 39083 ft 473 kts 219°
2026-05-08 09:20 53.76023 10.26686 39235 ft 473 kts 219°
2026-05-08 09:20 53.73435 10.23245 39368 ft 473 kts 219°
2026-05-08 09:20 53.70850 10.19812 39500 ft 473 kts 219°
2026-05-08 09:21 53.68265 10.16384 39631 ft 473 kts 219°
2026-05-08 09:21 53.65673 10.12952 39756 ft 473 kts 219°
2026-05-08 09:22 53.50109 9.92469 40212 ft 474 kts 219°
2026-05-08 09:23 53.47507 9.89064 40210 ft 474 kts 219°
2026-05-08 09:23 53.42306 9.82273 40195 ft 474 kts 219°
2026-05-08 09:24 53.37099 9.75496 40195 ft 474 kts 219°
2026-05-08 09:24 53.31888 9.68737 40193 ft 474 kts 219°
2026-05-08 09:25 53.26679 9.61999 40195 ft 473 kts 219°
2026-05-08 09:25 53.21467 9.55279 40195 ft 473 kts 219°
2026-05-08 09:26 53.16252 9.48578 40189 ft 473 kts 218°
2026-05-08 09:26 53.11032 9.41891 40189 ft 473 kts 218°
2026-05-08 09:27 53.05812 9.35224 40187 ft 473 kts 218°
2026-05-08 09:27 53.01470 9.29695 40186 ft 473 kts 218°
2026-05-08 09:28 52.95355 9.21933 40182 ft 473 kts 218°
2026-05-08 09:28 52.91003 9.16426 40182 ft 473 kts 218°
2026-05-08 09:29 52.85766 9.09818 40181 ft 473 kts 218°
2026-05-08 09:29 52.80542 9.03245 40178 ft 472 kts 218°
2026-05-08 09:30 52.75312 8.96687 40175 ft 472 kts 218°
2026-05-08 09:30 52.70082 8.90149 40171 ft 472 kts 218°
2026-05-08 09:31 52.64849 8.83627 40167 ft 472 kts 218°
2026-05-08 09:31 52.59617 8.77126 40167 ft 471 kts 218°
2026-05-08 09:32 52.54377 8.70635 40164 ft 471 kts 218°
2026-05-08 09:32 52.49136 8.64163 40164 ft 471 kts 218°
2026-05-08 09:33 52.43889 8.57703 40153 ft 471 kts 218°
2026-05-08 09:33 52.38642 8.51264 40162 ft 471 kts 218°
2026-05-08 09:34 52.33391 8.44838 40160 ft 471 kts 218°
2026-05-08 09:34 52.28139 8.38430 40159 ft 471 kts 218°
2026-05-08 09:35 52.22884 8.32039 40144 ft 471 kts 218°
2026-05-08 09:35 52.17945 8.25037 40144 ft 470 kts 225°
2026-05-08 09:36 52.13348 8.17468 40150 ft 470 kts 226°
2026-05-08 09:36 52.08802 8.09819 40148 ft 470 kts 226°
2026-05-08 09:37 52.04249 8.02186 40148 ft 470 kts 226°
2026-05-08 09:37 51.99680 7.94579 40144 ft 470 kts 226°
2026-05-08 09:38 51.95108 7.87004 40143 ft 470 kts 226°
2026-05-08 09:38 51.90531 7.79449 40144 ft 470 kts 226°
2026-05-08 09:39 51.85945 7.71899 40139 ft 470 kts 226°
2026-05-08 09:39 51.81353 7.64362 40139 ft 470 kts 226°
2026-05-08 09:40 51.76755 7.56838 40132 ft 470 kts 226°
2026-05-08 09:40 51.72153 7.49331 40133 ft 470 kts 226°
2026-05-08 09:41 51.67547 7.41841 40134 ft 470 kts 226°
2026-05-08 09:41 51.62937 7.34367 40125 ft 470 kts 226°
2026-05-08 09:42 51.58323 7.26909 40117 ft 470 kts 226°
2026-05-08 09:42 51.53700 7.19459 40125 ft 471 kts 226°
2026-05-08 09:43 51.49072 7.12025 40123 ft 471 kts 226°
2026-05-08 09:43 51.44438 7.04602 40121 ft 471 kts 226°
2026-05-08 09:44 51.39799 6.97196 40122 ft 471 kts 226°
2026-05-08 09:44 51.35153 6.89799 40114 ft 471 kts 226°
2026-05-08 09:45 51.30507 6.82426 40129 ft 471 kts 226°
2026-05-08 09:45 51.25853 6.75062 40130 ft 471 kts 225°
2026-05-08 09:46 51.21226 6.67762 40128 ft 471 kts 225°
2026-05-08 09:46 51.16562 6.60427 40129 ft 471 kts 225°
2026-05-08 09:47 51.11890 6.53101 40125 ft 471 kts 225°
2026-05-08 09:47 51.07216 6.45793 40126 ft 471 kts 225°
2026-05-08 09:48 51.02533 6.38494 40123 ft 471 kts 225°
2026-05-08 09:48 50.97848 6.31212 40125 ft 471 kts 225°
2026-05-08 09:49 50.93158 6.23947 40128 ft 471 kts 225°
2026-05-08 09:49 50.88466 6.16699 40128 ft 471 kts 225°
2026-05-08 09:50 50.83768 6.09462 40130 ft 471 kts 225°
2026-05-08 09:50 50.79064 6.02238 40122 ft 472 kts 225°
2026-05-08 09:51 50.74352 5.95023 40099 ft 472 kts 225°
2026-05-08 09:51 50.69637 5.87825 40098 ft 471 kts 225°
2026-05-08 09:52 50.64922 5.80647 40095 ft 471 kts 225°
2026-05-08 09:52 50.60204 5.73485 40092 ft 471 kts 225°
2026-05-08 09:53 50.55845 5.65813 40093 ft 470 kts 231°
2026-05-08 09:53 50.51667 5.57902 40091 ft 470 kts 231°
2026-05-08 09:54 50.47515 5.49965 40094 ft 470 kts 231°
2026-05-08 09:54 50.43357 5.42052 40092 ft 470 kts 231°
2026-05-08 09:55 50.39187 5.34164 40090 ft 470 kts 231°
2026-05-08 09:55 50.35012 5.26299 40091 ft 470 kts 231°
2026-05-08 09:56 50.30828 5.18440 40093 ft 470 kts 231°
2026-05-08 09:56 50.26643 5.10601 40082 ft 469 kts 231°
2026-05-08 09:57 50.20360 4.98879 40086 ft 469 kts 231°
2026-05-08 09:57 50.16167 4.91083 40102 ft 469 kts 231°
2026-05-08 09:58 50.11969 4.83294 40088 ft 469 kts 231°
2026-05-08 09:58 50.07767 4.75532 40097 ft 469 kts 231°
2026-05-08 09:59 50.04265 4.69086 40093 ft 469 kts 231°
2026-05-08 09:59 49.99367 4.60092 40092 ft 469 kts 231°
2026-05-08 10:00 49.95094 4.52427 40091 ft 469 kts 228°
2026-05-08 10:00 49.90578 4.45113 40092 ft 469 kts 226°
2026-05-08 10:01 49.86020 4.37872 40085 ft 469 kts 227°
2026-05-08 10:01 49.81489 4.30595 40084 ft 469 kts 227°
2026-05-08 10:02 49.76971 4.23293 40085 ft 469 kts 227°
2026-05-08 10:02 49.72458 4.16003 40082 ft 469 kts 227°
2026-05-08 10:03 49.67940 4.08730 40085 ft 469 kts 227°
2026-05-08 10:03 49.63415 4.01469 40084 ft 469 kts 227°
2026-05-08 10:04 49.58882 3.94217 40079 ft 469 kts 227°
2026-05-08 10:04 49.54349 3.86986 40077 ft 469 kts 227°
2026-05-08 10:05 49.49806 3.79760 40078 ft 469 kts 227°
2026-05-08 10:05 49.45264 3.72556 40072 ft 469 kts 227°
2026-05-08 10:06 49.40710 3.65353 40073 ft 470 kts 227°
2026-05-08 10:06 49.36151 3.58164 40071 ft 470 kts 227°
2026-05-08 10:07 49.31587 3.50986 40076 ft 470 kts 226°
2026-05-08 10:07 49.27023 3.43828 40073 ft 470 kts 226°
2026-05-08 10:08 49.22449 3.36675 40072 ft 470 kts 226°
2026-05-08 10:08 49.19422 3.31952 40074 ft 470 kts 226°
2026-05-08 10:09 49.14067 3.23619 40072 ft 470 kts 226°
2026-05-08 10:09 49.08710 3.15309 40070 ft 470 kts 226°
2026-05-08 10:10 49.04122 3.08215 40066 ft 470 kts 226°
2026-05-08 10:10 48.99534 3.01139 40066 ft 469 kts 226°
2026-05-08 10:11 48.94942 2.94078 40067 ft 469 kts 226°
2026-05-08 10:11 48.91127 2.88226 40067 ft 469 kts 226°
2026-05-08 10:12 48.86532 2.81196 40070 ft 469 kts 226°
2026-05-08 10:12 48.82073 2.73978 40072 ft 468 kts 233°
2026-05-08 10:13 48.78263 2.66007 40073 ft 467 kts 236°
2026-05-08 10:13 48.74573 2.57888 40075 ft 467 kts 236°
2026-05-08 10:14 48.70894 2.49760 40076 ft 468 kts 236°
2026-05-08 10:14 48.67203 2.41666 40077 ft 468 kts 236°
2026-05-08 10:15 48.63496 2.33586 40074 ft 467 kts 236°
2026-05-08 10:15 48.59551 2.25775 40070 ft 468 kts 227°
2026-05-08 10:16 48.54543 2.19813 40069 ft 471 kts 211°
2026-05-08 10:16 48.48383 2.16333 40059 ft 476 kts 196°